Theta_e
279 279 279 279 279 280 282 282 282 283 284 284 285 286 286 287 288 291 290 290 293 291 292 294 292 294 295 295 296 297 298 297 286 280 281 280 280 281 281 282 279 278 278
279 279 278 278 279 279 280 280 281 281 282 282 283 284 283 283 285 286 285 285 286 287 286 289 288 289 290 292 292 292 293 292 287 281 278 278 280 280 276 275 275 276 277
278 278 278 278 278 278 278 279 280 280 280 280 281 281 281 281 283 283 283 284 285 284 285 285 285 286 285 286 287 288 287 288 287 282 278 277 276 276 275 275 275 276 276
278 278 278 278 278 278 278 279 279 279 279 279 279 279 280 280 281 281 281 280 280 279 280 280 280 280 279 279 280 280 282 284 283 280 276 275 275 274 275 274 275 275 276
279 279 278 278 278 279 279 279 279 279 279 279 279 279 278 279 278 278 278 278 278 278 278 279 279 279 278 278 279 278 279 278 277 276 276 275 274 274 273 273 273 274 275
278 278 278 278 278 278 278 278 278 278 279 279 279 279 279 279 279 278 278 278 277 277 277 277 278 278 279 279 279 278 278 278 277 276 275 275 273 273 273 273 273 272 272
278 278 278 278 278 278 278 278 277 277 278 278 278 278 278 279 279 278 278 278 277 277 277 277 276 275 276 276 276 276 277 277 277 276 275 274 273 273 273 273 273 272 272
278 278 278 278 278 278 278 278 278 277 277 277 277 277 277 278 278 277 278 278 277 277 277 277 277 277 276 276 276 276 275 275 275 275 274 274 274 274 274 273 272 272 271
278 278 278 278 278 278 278 278 278 278 277 277 277 278 277 277 277 276 277 276 276 276 276 276 277 277 277 276 276 275 274 274 274 274 274 274 273 273 272 272 271 269 268
277 277 278 278 278 278 278 278 278 278 277 277 277 277 278 278 278 277 276 276 275 275 275 276 277 277 277 276 275 275 274 274 275 274 274 273 273 272 272 271 270 269 267
277 277 277 277 277 277 277 277 277 277 277 278 277 278 278 278 278 278 276 276 276 275 275 275 275 276 276 276 276 274 275 275 274 273 273 273 273 273 272 271 270 269 268
277 277 277 277 277 277 277 277 277 277 277 277 277 277 277 277 278 278 277 277 276 276 275 275 275 276 276 276 275 275 275 275 274 273 273 274 274 273 271 270 270 269 269
277 277 277 277 277 277 277 277 277 276 276 276 276 276 276 276 276 276 276 277 277 276 276 276 276 276 277 277 276 276 276 275 275 276 276 275 274 274 273 271 271 269 268
277 277 277 277 277 277 277 276 277 277 277 276 276 277 276 276 276 276 276 277 277 278 278 278 277 277 276 275 276 275 275 274 274 273 273 273 272 272 271 271 270 269 266
277 277 277 277 277 277 277 277 277 277 277 277 277 277 277 277 278 277 277 277 277 277 276 276 276 276 276 276 275 275 274 273 273 273 272 272 272 271 272 271 269 268 266
277 277 277 277 276 276 276 276 276 277 277 277 278 278 278 277 277 277 277 278 278 278 278 277 277 276 276 276 276 276 275 274 274 273 273 273 272 271 271 271 269 267 265
278 278 277 277 276 276 276 276 276 278 277 278 278 278 278 278 277 277 278 278 278 278 278 277 277 276 276 276 276 276 276 276 275 273 272 272 271 270 269 268 267 266 264
278 278 278 277 277 276 276 276 276 276 276 277 278 279 279 279 279 279 279 279 279 279 279 278 277 276 276 275 275 275 274 274 274 273 272 271 270 269 267 266 266 265 265
277 277 277 277 277 277 277 276 276 276 276 276 277 277 277 278 279 280 280 280 280 279 278 277 277 276 276 275 274 274 273 273 272 272 271 270 269 268 267 266 266 265 264
277 277 277 277 276 276 276 276 275 275 275 275 275 276 277 276 276 276 277 279 279 278 278 277 276 275 275 274 274 273 272 272 271 270 270 269 268 267 267 266 266 265 264
277 277 276 275 275 275 275 275 275 275 275 274 275 275 275 275 275 275 275 275 274 274 275 274 274 274 274 273 273 273 272 271 270 270 269 268 268 267 267 266 266 265 265
276 276 275 274 274 274 274 274 274 274 274 273 274 274 275 275 276 275 275 275 275 275 274 274 274 273 273 272 272 271 271 270 270 269 269 268 268 267 266 266 266 265 264
275 274 274 273 273 273 273 273 273 273 273 273 273 273 274 274 274 274 274 275 274 274 274 274 273 273 272 272 271 271 271 270 270 270 269 268 267 266 266 266 265 264 263
275 274 273 273 273 273 273 272 272 272 273 273 273 273 273 273 273 273 273 273 273 273 273 273 272 272 271 271 271 271 270 270 270 269 269 268 267 266 266 266 264 263 263
274 274 273 273 273 273 273 273 273 273 273 273 273 273 273 273 273 273 273 272 272 272 272 271 271 271 271 270 270 270 270 269 269 268 268 267 266 265 265 264 264 262 262
275 274 273 272 272 273 273 273 273 273 273 273 273 273 273 273 273 272 272 272 272 271 271 271 270 270 270 270 269 269 269 269 268 268 268 267 267 266 265 264 263 262 262
Wind_Speed
10 8 6 4 4 6 9 9 8 7 7 7 8 10 12 12 15 18 20 18 20 19 17 17 16 14 15 13 13 12 14 11 7 5 11 16 16 12 8 5 4 5 5
8 8 7 6 8 12 12 12 11 14 13 14 14 16 17 18 20 23 25 24 27 27 26 25 23 20 22 20 16 13 13 9 10 13 14 12 9 10 2 5 7 7 6
10 12 13 13 14 15 15 16 17 19 20 21 22 23 24 25 28 28 30 31 31 30 29 28 26 23 24 21 21 21 15 17 16 20 12 9 7 9 7 5 7 8 9
15 17 17 18 18 19 21 22 24 24 25 25 26 27 28 30 32 33 34 35 34 32 31 30 27 25 24 23 26 22 20 21 21 24 18 10 7 7 2 3 6 10 15
17 18 19 21 22 24 26 26 27 28 27 26 27 29 29 29 29 32 33 34 33 33 32 31 27 24 23 22 24 22 21 22 20 20 13 8 6 3 1 3 6 16 14
21 22 21 23 24 25 26 26 27 27 28 29 29 28 27 26 22 26 33 33 32 32 31 28 27 25 22 23 22 19 16 16 16 13 9 6 6 4 0 5 9 7 6
19 19 20 21 22 23 23 24 25 25 27 28 29 29 27 23 21 23 27 28 28 25 24 21 19 18 17 19 19 18 18 16 12 10 10 6 4 1 4 7 8 7 9
18 18 18 19 21 22 23 23 22 22 23 24 25 26 25 21 20 22 24 24 24 22 21 19 18 15 12 15 15 15 14 11 9 9 7 5 2 4 7 9 11 14 20
15 16 16 18 20 19 20 20 19 20 20 20 19 20 21 18 14 15 18 18 18 17 16 15 14 14 11 12 11 10 8 6 5 4 2 2 4 5 6 9 10 10 5
12 12 12 14 15 16 15 14 14 15 15 16 16 16 16 16 11 11 12 14 14 13 11 11 10 10 9 7 7 5 4 3 4 4 6 6 7 6 6 7 8 9 6
11 10 10 10 10 10 10 10 10 11 12 12 13 12 12 12 10 8 8 10 10 10 8 7 6 6 5 4 2 3 2 4 6 10 11 11 10 10 10 8 8 10 12
12 11 9 8 8 8 8 9 9 9 9 9 8 8 7 6 7 6 6 6 6 5 5 4 3 2 2 2 3 2 2 7 9 11 13 14 14 14 14 15 15 15 18
13 12 12 10 10 10 11 12 11 10 9 9 8 7 6 6 5 5 5 5 5 4 3 3 2 4 5 6 6 5 7 8 10 12 13 15 16 16 18 19 19 21 21
15 14 13 12 11 11 11 10 10 10 10 10 12 13 12 11 11 10 9 8 7 7 6 7 9 9 9 10 10 10 11 12 13 14 15 17 19 20 22 21 22 23 23
18 17 17 16 15 15 15 14 15 14 14 15 15 13 14 16 14 13 14 15 13 12 12 14 16 17 18 18 19 18 16 16 18 18 18 20 22 24 25 24 24 24 21
23 22 22 20 18 18 17 18 19 18 18 19 18 19 20 20 17 16 17 17 15 13 17 21 24 24 26 27 25 25 24 24 25 24 24 24 25 26 27 27 27 27 23
28 27 25 24 23 23 22 23 24 22 22 22 21 21 22 21 20 19 19 18 19 18 25 25 30 29 33 32 32 31 33 32 30 28 29 29 30 30 28 28 28 25 23
30 28 27 28 27 26 26 27 26 25 25 26 24 24 24 23 23 22 22 20 25 26 28 28 29 29 33 34 35 36 36 35 33 34 34 34 34 32 27 26 25 24 23
34 33 32 31 30 29 28 28 28 28 29 31 31 29 29 28 25 26 25 30 28 27 27 30 34 33 33 33 35 36 36 36 35 34 34 33 33 31 28 29 27 27 25
38 37 35 34 33 31 31 30 31 30 28 29 30 36 33 28 30 35 35 33 31 32 32 31 33 34 35 35 34 34 33 33 33 32 33 33 32 30 28 27 25 23 22
40 39 38 35 34 35 33 33 30 28 29 28 34 35 30 28 33 34 35 36 38 39 40 38 37 36 36 34 32 31 33 32 31 33 32 31 30 28 30 28 25 24 24
39 39 37 37 35 33 33 31 30 31 29 29 31 32 25 27 31 35 36 38 39 39 39 38 35 35 33 32 31 30 30 31 30 31 30 28 28 29 27 25 24 24 24
37 35 34 33 33 31 30 32 30 28 28 28 29 30 28 30 31 32 34 34 33 34 34 33 34 33 32 31 31 31 29 28 28 28 28 27 27 27 24 24 24 23 22
31 28 26 27 28 30 30 29 28 30 31 29 28 28 29 29 30 31 32 32 32 33 32 33 31 31 30 29 30 32 31 31 30 30 30 28 28 26 24 25 25 26 28
25 26 26 26 25 24 24 24 25 26 27 26 26 27 28 28 28 28 29 29 30 30 29 28 28 28 29 29 28 28 27 28 28 28 28 28 29 28 27 26 27 27 29
15 18 19 20 21 22 22 22 21 22 23 23 23 23 23 25 25 24 24 24 26 26 27 28 29 28 27 26 26 26 26 25 25 25 24 26 29 30 28 30 32 30 30
Wind_Direction
358 2 13 33 86 105 98 102 110 118 113 111 112 116 117 124 128 125 121 125 127 123 119 113 110 120 123 127 143 155 156 153 116 133 148 177 177 182 192 175 263 261 255
29 39 47 73 91 95 97 103 111 107 110 110 115 112 113 115 118 119 116 116 113 111 109 112 106 112 113 113 117 128 136 155 142 129 137 148 162 157 199 240 261 267 266
64 69 69 75 86 93 99 104 105 107 108 106 106 108 109 108 111 110 111 108 104 102 102 103 103 102 93 103 102 96 109 120 141 139 131 143 136 163 207 246 267 287 301
71 71 68 74 81 86 91 93 97 101 101 103 104 103 103 105 109 109 108 106 102 100 99 94 93 98 101 98 94 98 100 103 113 113 111 117 126 148 184 284 300 310 320
63 63 65 75 81 85 86 88 92 93 92 91 93 94 98 102 107 112 110 106 106 101 99 93 86 86 87 91 94 95 104 108 113 114 111 121 94 99 52 323 318 328 327
77 70 71 73 78 80 88 91 94 96 97 96 90 90 87 88 95 101 108 104 102 99 97 95 92 87 82 81 83 88 92 109 110 108 107 113 135 139 21 351 338 339 330
87 88 89 87 86 88 94 94 94 96 100 94 92 92 89 89 92 97 105 103 99 95 93 90 87 92 98 95 84 84 81 81 93 111 116 105 96 100 302 310 321 316 291
101 103 103 102 100 101 101 97 97 97 96 96 95 91 88 84 88 93 97 97 97 97 95 97 94 84 85 87 85 83 80 83 84 82 86 91 64 328 310 313 308 301 297
110 113 113 114 110 106 102 101 101 100 95 91 93 95 94 88 86 95 103 103 102 101 103 100 98 90 78 83 87 94 105 110 102 101 94 24 342 301 295 292 300 315 311
115 110 113 113 109 107 106 106 104 104 104 105 99 96 97 96 93 101 112 115 112 114 112 104 87 80 78 67 72 73 77 48 7 350 328 323 328 331 324 308 307 305 308
125 118 111 108 106 107 106 103 106 110 111 106 102 101 100 98 95 105 120 122 123 126 123 118 106 92 61 60 23 18 24 314 312 320 324 327 328 330 331 321 302 287 270
150 143 138 131 123 124 125 120 123 123 124 123 128 133 134 131 133 126 129 135 138 143 145 134 113 122 243 225 258 297 294 295 309 315 322 325 327 330 325 318 310 296 289
170 166 165 162 160 159 162 163 164 165 172 175 185 195 197 198 193 184 183 178 186 202 212 205 206 269 277 272 273 283 286 299 304 308 314 314 315 313 309 307 303 299 293
187 186 187 190 189 191 193 196 200 204 208 215 219 223 222 223 221 216 214 215 223 235 244 239 252 266 272 268 272 273 272 272 276 283 290 298 301 302 302 303 303 307 301
201 201 203 206 207 210 216 220 224 229 232 235 242 246 244 248 247 244 238 236 239 248 254 254 256 264 270 268 267 269 270 268 267 276 278 285 293 297 299 305 302 302 285
206 209 214 218 222 226 231 236 239 244 243 246 248 248 247 251 251 245 239 239 241 247 251 260 262 265 268 273 276 277 274 270 272 276 278 278 281 284 288 293 292 286 273
216 219 220 222 225 228 232 238 250 248 251 251 252 251 250 261 260 251 249 247 249 253 253 258 261 263 270 274 277 276 277 281 281 273 269 270 270 271 272 274 277 272 264
224 228 228 230 233 236 238 242 248 257 264 261 255 253 257 257 257 255 255 258 257 251 250 254 256 261 265 267 271 274 277 277 272 270 268 267 267 263 258 258 259 256 259
225 229 231 234 237 242 247 251 254 257 261 266 271 267 261 259 259 257 254 249 251 252 249 251 255 259 261 264 267 269 272 272 273 271 270 268 267 262 254 257 257 257 258
230 234 235 237 239 240 243 246 251 253 257 261 264 268 273 271 263 259 253 246 247 252 256 254 257 261 263 264 265 265 266 268 267 264 265 266 265 260 254 254 255 257 256
233 236 238 239 240 243 242 242 245 248 251 254 260 267 272 267 266 267 267 262 257 256 259 261 263 264 267 266 265 263 264 264 263 266 266 266 269 257 263 260 258 257 259
238 241 241 238 241 242 243 245 247 249 251 255 263 269 265 257 261 266 266 267 269 272 274 271 267 268 268 267 267 265 262 260 261 265 262 262 263 261 258 255 256 255 258
241 239 241 244 246 248 249 252 251 251 255 259 264 267 268 263 260 259 261 265 267 268 270 269 269 268 269 270 270 270 264 262 267 271 267 264 263 258 252 254 254 255 257
244 240 240 246 251 254 253 253 256 260 260 261 263 263 263 263 263 265 267 269 269 269 269 270 269 270 273 273 274 277 274 274 271 269 270 265 259 257 255 254 256 259 263
247 248 249 251 253 254 258 260 261 262 263 263 266 268 269 269 270 270 273 275 275 275 275 274 275 277 281 282 282 281 281 282 280 279 278 272 264 259 256 257 260 261 263
254 256 259 263 265 267 267 269 272 276 274 275 275 275 277 277 277 276 277 277 276 277 280 281 285 287 286 286 286 285 284 283 280 278 275 271 266 261 258 258 264 259 260